#timestamp,LO_Frequency,Hit 
1503648015.1,286046995.1,N
1503648016.0,286046995.1,N
1503648035.8,286046999.2,N
1503648055.7,286046998.8,N
1503648075.5,286046999.1,N
1503648095.3,286046998.2,N
1503648115.2,286046999.7,N
1503648135.9,286047002.5,N
1503648155.7,286047002.6,N
1503648175.6,286047000.0,N
1503648195.4,286047001.7,N
1503648215.2,286047002.0,N
1503648235.0,286046999.5,N
1503648236.0,286046999.5,N
1503648255.8,286046996.6,N
1503648275.6,286046998.5,N
1503648295.4,286046997.7,N
1503648315.3,286046997.8,N
1503648335.1,286046994.3,N
1503648355.8,286046994.5,N
1503648375.7,286046996.9,N
1503648395.5,286046999.0,N
1503648415.3,286046998.0,N
1503648435.2,286046997.7,N
1503648455.9,286046996.1,N
1503648475.7,286046993.3,P
1503648495.6,286046998.0,N
1503648515.4,286046998.8,N
1503648535.2,286046996.2,N
1503648555.1,286046997.1,N
1503648556.0,286046997.1,N
1503648575.8,286046998.7,N
1503648595.6,286046997.6,N
1503648615.5,286046995.4,N
1503648635.3,286046995.9,N
1503648655.1,286046995.2,P
1503648675.9,286046997.8,N
1503648695.7,286046999.1,N
1503648715.5,286046998.9,N
1503648735.4,286046997.6,N
1503648755.2,286046998.7,N
1503648775.0,286046996.7,N
1503648775.9,286046996.7,N
1503648795.8,286046999.2,N
1503648815.6,286046996.6,N
1503648835.4,286046996.5,N
1503648855.3,286046995.6,P
1503648875.1,286046997.0,P
1503648895.8,286046997.1,P
1503648915.7,286046998.4,N
1503648935.5,286047000.0,N
1503648955.3,286046996.9,N
1503648975.2,286046997.2,N
1503648995.9,286046998.9,N
1503649015.7,286046999.0,N
1503649035.5,286046996.5,N
1503649055.4,286046999.0,N
1503649075.2,286046999.4,N
1503649095.0,286047000.9,N
1503649095.9,286047000.9,N
1503649115.8,286047000.0,N
1503649135.6,286046997.8,N
1503649155.4,286046996.7,N
1503649175.3,286046997.4,N
1503649195.1,286046994.5,P
1503649215.8,286046996.3,N
1503649235.7,286046999.1,N
1503649255.5,286047001.6,N
1503649275.3,286047000.7,N
1503649295.2,286046998.8,N
1503649315.9,286046998.3,N
1503649335.7,286046998.6,N
1503649355.6,286046998.7,N
1503649375.4,286046996.8,N
1503649395.2,286046997.8,N
1503649415.1,286046993.5,P
1503649416.0,286046993.5,N
1503649435.8,286046998.0,N
1503649455.6,286046998.9,N
1503649475.5,286046999.9,N
1503649495.3,286046997.0,N
1503649515.1,286046998.6,N
1503649535.9,286046998.9,N
1503649555.7,286046999.5,N
1503649575.5,286047000.7,N
1503649595.3,286046997.9,N
1503649615.2,286046998.3,N
1503649635.0,286046998.2,N
1503649635.9,286046998.2,N
1503649655.7,286046998.1,N
1503649675.6,286046998.4,N
1503649695.4,286046999.3,N
1503649715.2,286046998.1,N
1503649735.1,286047000.0,N
1503649736.0,286047000.0,N
1503649755.8,286046996.6,N
1503649775.6,286046999.5,N
1503649795.5,286046999.3,N
1503649815.3,286046999.5,N
1503649835.1,286046996.1,N
1503649855.9,286046995.3,N
1503649875.7,286046993.3,P
1503649895.5,286046997.5,N
1503649915.4,286046999.5,N
1503649935.2,286046997.3,N
1503649955.0,286047001.0,N
1503649955.9,286047001.0,N
1503649975.8,286046999.3,N
1503649995.6,286046998.1,N
1503650015.4,286046999.5,N
1503650035.3,286046997.0,N
1503650055.1,286046995.2,N
1503650056.0,286046995.2,N
1503650075.8,286046993.6,N
1503650095.6,286046996.3,N
1503650115.5,286046996.8,N
1503650135.3,286046992.4,P
1503650155.2,286046992.1,P
1503650175.9,286046990.2,P
1503650195.7,286046988.9,P
1503650215.6,286046994.1,N
1503650235.4,286046991.7,P
1503650255.2,286046994.0,P
1503650275.1,286046999.9,N
1503650276.0,286046999.9,N
1503650295.8,286047001.1,N
1503650315.6,286046998.4,N
1503650335.5,286047004.0,N
1503650355.3,286047003.4,N
1503650375.1,286047005.3,N
1503650395.9,286047005.5,N
1503650415.7,286047005.8,N
1503650435.5,286047006.3,N
1503650455.3,286047008.1,N
1503650475.2,286047007.7,N
1503650495.0,286047009.8,N
1503650495.9,286047009.8,N
1503650515.7,286047010.8,N
1503650535.6,286047009.1,N
1503650555.4,286047008.5,N
1503650575.2,286047007.8,N
1503650595.1,286047007.0,N
1503650596.0,286047007.0,N
1503650615.8,286047006.5,N
1503650635.6,286047008.5,N
1503650655.5,286047007.1,N
1503650675.3,286047004.5,N
1503650695.1,286047006.2,N
1503650715.9,286047003.7,N
1503650735.7,286047001.7,N
1503650755.5,286047003.8,N
1503650775.4,286047003.6,N
1503650795.2,286047002.9,N
1503650815.0,286047001.6,N
1503650815.9,286047001.6,N
1503650835.8,286047002.1,N
1503650855.6,286047004.4,N
1503650875.4,286046999.8,N
1503650895.2,286047000.3,N
1503650915.1,286046998.4,N
1503650916.0,286046998.4,N
1503650935.8,286046999.0,N
1503650955.6,286047002.5,N
1503650975.5,286047000.2,N
1503650995.3,286047000.1,N
1503651015.1,286047000.5,N
1503651035.9,286047004.5,N
1503651055.7,286047005.4,N
1503651075.5,286047006.0,N
1503651095.4,286047005.3,N
1503651115.2,286047005.5,N
1503651135.0,286047005.8,N
1503651135.9,286047005.8,N
1503651155.8,286047007.4,N
1503651175.6,286047007.2,N
1503651195.4,286047004.2,N
1503651215.3,286047005.1,N
1503651235.1,286047005.1,N
1503651236.0,286047005.1,N
1503651255.8,286047005.6,N
1503651275.7,286047002.5,N
1503651295.5,286046998.1,N
1503651315.3,286047000.8,N
1503651335.1,286047003.8,N
1503651355.9,286047005.0,N
1503651375.7,286047006.8,N
1503651395.5,286047005.3,N
1503651415.4,286047007.6,N
1503651435.2,286047001.7,N
1503651455.0,286047005.6,N
1503651455.9,286047005.6,N
1503651475.8,286047003.3,N
1503651495.6,286047004.8,N
1503651515.4,286047006.3,N
1503651535.3,286047006.7,N
1503651555.1,286047009.1,P
1503651575.8,286046998.1,N
1503651595.7,286046998.2,N
